sat.trackr.live / text

‹ back to catalog

ZIYUAN 3-04 (ZY 3-04)

NORAD 67131 · 2025-300A

PAYLOAD ACTIVE UNKNOWN

§ Identity

Operator
Country
PRC
Launch date
2025-12-16
Launch site
TAISC
Launch vehicle
Mass (kg)
RCS (m²)

External: N2YO · Heavens-Above · Gunter

§ Orbital elements

Epoch: 2026-09-20T16:05:01.881888Z

Period
94.66 min
Inclination
97.4664°
Eccentricity
0.0006874
Mean motion
15.21160732 rev/d
Perigee alt
497.6 km
Apogee alt
507.1 km
Semi-major
6,880.5 km
B*
1.1466e-4
RAAN
340.8242°
Arg perigee
355.1996°
Mean anomaly
4.9173°
Rev number
4,235

§ Raw data

ZIYUAN 3-04 (ZY 3-04)1 67131U 25300A   26263.67016067  .00002485  00000+0  11466-3 0  99992 67131  97.4664 340.8242 0006874 355.1996   4.9173 15.21160732 42358

JSON: /api/v1/satellites/67131 · /tle

For live sub-satellite position, see the globe view (requires WebGL).

§ Visibility from observer

Set your observer location to see the next 7 days of passes ≥ 10°. The values pass through the URL so the page stays shareable.

No JS? Fill the form by hand. The geolocation button needs JavaScript.

§ Radio — SatNOGS DB

ModeDescriptionDownlinkUplink
FM S-band telemetry 2.215 GHz

1 transmitter · refreshed weekly from db.satnogs.org